Regional Weather Roundup
Issued by NWS Cleveland, OH

Home | Current Version | Previous Version | Text Only | Print | Product List | Glossary On
Versions: 1 2 3 4 5 6 7 8 9 10 11 12 13 14 15 16 17 18 19 20 21 22 23 24 25 26 27 28 29 30 31 32 33 34 35 36 37 38 39 40 41 42 43 44 45 46 47 48 49 50
000
ASUS41 KCLE 241202
RWRCLE
OHIO REGIONAL WEATHER ROUNDUP
NATIONAL WEATHER SERVICE CLEVELAND, OH
700 AM EST WED JAN 24 2018

NOTE: "FAIR" INDICATES FEW OR NO CLOUDS BELOW 12,000 FEET WITH NO
SIGNIFICANT WEATHER AND/OR OBSTRUCTIONS TO VISIBILITY.

OHZ001>008-015>018-024>027-034-035-043-044-241300-
   NORTHWEST OHIO

CITY           SKY/WX    TMP DP  RH WIND       PRES   REMARKS
DEFIANCE       CLOUDY    30  22  72 NW3       30.17S
FINDLAY        CLOUDY    30  21  69 W14       30.16R WCI  19
TOLEDO EXPRESS CLOUDY    29  21  72 NW7       30.16R WCI  22
TOLEDO EXEC    CLOUDY    29  20  69 W16       30.18R WCI  17
LIMA           CLOUDY    30  25  81 NW8       30.16R WCI  22
$$

OHZ009>014-019>023-028>033-038-089-241300-
   NORTHEAST OHIO

CITY           SKY/WX    TMP DP  RH WIND       PRES   REMARKS
CLE-HOPKINS    FLURRIES  29  23  78 W3        30.16R
CLE-LAKEFRONT  FLURRIES  29  22  75 NW6       30.14R WCI  23
CUY CO. ARPT   CLOUDY    28  23  80 NW7       30.13  WCI  21
LORAIN-ELYRIA  CLOUDY    28  19  69 N8        30.15R WCI  20
ASHTABULA      CLOUDY    25  22  88 NW7       30.12R WCI  17
AKRON-CANTON   FLURRIES  28  21  75 NW7       30.12R WCI  21
WOOSTER        CLOUDY    28  22  78 NW5       30.13R WCI  23
MANSFIELD      CLOUDY    28  21  75 NW6       30.13R WCI  22
YOUNGSTOWN     FRZ DRZL  26  23  88 W7        30.10R WCI  18
$$

OHZ042-051>053-060>062-070>072-077>081-241300-
  SOUTHWEST OHIO

CITY           SKY/WX    TMP DP  RH WIND       PRES   REMARKS
CINC-COVINGTON FLURRIES  31  29  92 CALM      30.20R
CINC-LUNKEN    CLOUDY    31  29  92 SW5       30.24R WCI  26
HAMILTON       CLOUDY    32  27  81 W5        30.23R WCI  27
DAYTON         CLOUDY    30  26  85 NW7       30.18S WCI  23
WRIGHT-PAT AFB CLOUDY    31  23  71 NW8       30.18S WCI  24
DAYTON GENERAL CLOUDY    31  23  72 NW7       30.18S WCI  24
WILMINGTON     CLOUDY    30  25  81 NW13      30.18R WCI  20
$$

OHZ036-037-039>041-045>050-054>059-063>069-073>076-082>088-241300-
  CENTRAL AND SOUTHEAST OHIO

CITY           SKY/WX    TMP DP  RH WIND       PRES   REMARKS
COLUMBUS       FLURRIES  31  26  82 NW7       30.17R WCI  24
OSU AIRPORT    CLOUDY    31  26  82 W9        30.17R WCI  23
BOLTON FIELD   CLOUDY    31  26  83 NW6       30.18S WCI  25
RICKENBACK AFB NOT AVBL
NEWARK         CLOUDY    31  22  69 NW12      30.17R WCI  22
MARION         CLOUDY    29  22  75 NW12      30.16R WCI  19
LANCASTER      CLOUDY    31  25  78 NW8       30.19R WCI  23
ZANESVILLE     CLOUDY    32  23  69 NW9       30.16R WCI  24
NEW PHILLY     NOT AVBL
$$



USA.gov is the U.S. government's official web portal to all federal, state and local government web resources and services.